Tracking 27380 objects as of 6-Jun-2023
HD Live streaming from Space Station
objects crossing your sky now

BREEZE-M DEB

Track BREEZE-M DEB now!
10-day predictions


NORAD ID: 38566
Int'l Code: 2008-011M
Perigee: 823.5 km
Apogee: 17,455.4 km
Inclination: 48.0 °
Period: 320.4 minutes
Semi major axis: 15510 km
RCS: 0.269 m2 (medium)
Launch date: March 14, 2008
Source: Commonwealth of Independent States (former USSR) (CIS)
Launch site: TYURATAM MISSILE AND SPACE COMPLEX (TTMTR)

Note: This is SATELLITE DEBRIS
Your satellite tracking list
Your tracking list is empty




NASA's NSSDC Master Catalog

Two Line Element Set (TLE):
1 38566U 08011M   23156.13303989  .00001180  00000-0  18463-1 0  9994
2 38566  47.9859  79.5134 5361516 166.7323 216.4499  4.49433838173514
Source of the keplerian elements: AFSPC